Satellite-Ground Cal/Val Region Overpasses Predictions

Prediction of Satellite NPP Overpassing Cal/Val Region: PacNW

Region Location: (Latitude: 10.00, Longitude: 139.50) to (Latitude: 22.70, Longitude: 165.60).

Table of predicted overpasses for the next 14.0 days since TLE Epoch: 6/30/2014
Interval Starting Time Starting Location Ending Time Ending Location
1 06/30/2014 03:43:15 ( 10.00, 145.54) 06/30/2014 03:46:51 ( 22.68, 142.51)
2 06/30/2014 14:36:42 ( 11.94, 165.60) 06/30/2014 14:37:14 ( 10.06, 165.16)
3 06/30/2014 16:15:09 ( 22.67, 142.80) 06/30/2014 16:18:44 ( 10.06, 139.79)
4 07/01/2014 03:24:15 ( 10.03, 150.29) 07/01/2014 03:27:50 ( 22.65, 147.27)
5 07/01/2014 15:56:09 ( 22.65, 147.56) 07/01/2014 15:59:44 ( 10.03, 144.54)
6 07/02/2014 03:05:13 ( 10.00, 155.06) 07/02/2014 03:08:49 ( 22.68, 152.03)
7 07/02/2014 15:37:07 ( 22.68, 152.33) 07/02/2014 15:40:43 ( 10.00, 149.30)
8 07/03/2014 02:46:13 ( 10.03, 159.81) 07/03/2014 02:49:48 ( 22.65, 156.79)
9 07/03/2014 15:18:07 ( 22.65, 157.08) 07/03/2014 15:21:42 ( 10.03, 154.06)
10 07/04/2014 02:27:13 ( 10.06, 164.57) 07/04/2014 02:30:48 ( 22.68, 161.55)
11 07/04/2014 14:59:05 ( 22.68, 161.85) 07/04/2014 15:02:41 ( 10.00, 158.82)
12 07/05/2014 03:49:41 ( 10.03, 143.96) 07/05/2014 03:53:16 ( 22.65, 140.94)
13 07/05/2014 14:41:15 ( 18.54, 165.59) 07/05/2014 14:43:40 ( 10.03, 163.58)
14 07/05/2014 16:21:35 ( 22.65, 141.22) 07/05/2014 16:23:35 ( 15.61, 139.51)
15 07/06/2014 03:30:40 ( 10.00, 148.72) 07/06/2014 03:34:16 ( 22.68, 145.69)
16 07/06/2014 16:02:33 ( 22.67, 145.99) 07/06/2014 16:06:08 ( 10.06, 142.98)
17 07/07/2014 03:11:39 ( 10.04, 153.48) 07/07/2014 03:15:14 ( 22.66, 150.46)
18 07/07/2014 15:43:33 ( 22.64, 150.75) 07/07/2014 15:47:08 ( 10.03, 147.73)
19 07/08/2014 02:52:38 ( 10.01, 158.24) 07/08/2014 02:56:14 ( 22.69, 155.21)
20 07/08/2014 15:24:31 ( 22.67, 155.51) 07/08/2014 15:28:06 ( 10.05, 152.50)
21 07/09/2014 02:33:37 ( 10.04, 163.00) 07/09/2014 02:37:12 ( 22.66, 159.98)
22 07/09/2014 15:05:30 ( 22.70, 160.28) 07/09/2014 15:09:06 ( 10.02, 157.25)
23
